Regional Weather Roundup
Issued by NWS

Home | Current Version | Previous Version | Graphics & Text | Print | Product List | Glossary On
Versions: 1 2 3 4 5 6 7 8 9 10 11 12 13 14 15 16 17 18 19 20 21 22 23 24 25 26 27 28 29 30 31 32 33 34 35 36 37 38 39 40 41 42 43 44 45 46 47 48 49 50
000
ASUS43 KLOT 260904
RWRIL

ILLINOIS REGIONAL WEATHER ROUNDUP
NATIONAL WEATHER SERVICE CHICAGO/ROMEOVILLE IL
400 AM CDT MON SEP 26 2016

NOTE: "FAIR" INDICATES FEW OR NO CLOUDS BELOW 12,000 FEET WITH NO
SIGNIFICANT WEATHER AND/OR OBSTRUCTIONS TO VISIBILITY.

* THESE STATIONS ARE NOT UNDER NWS QUALITY CONTROL. THEY ALSO MAY NOT
  REPORT WEATHER SUCH AS PRECIPITATION OR FOG.

ILZ001-002-007-009-015-016-024-261000-
NORTHWEST ILLINOIS

CITY           SKY/WX    TMP DP  RH WIND       PRES   REMARKS
MOLINE         CLOUDY    60  49  66 W10       30.05S
STERLING*      CLOUDY    58  53  84 W12       30.03S
$$

ILZ003-004-008-010-011-017-018-261000-
NORTH CENTRAL ILLINOIS

CITY           SKY/WX    TMP DP  RH WIND       PRES   REMARKS
ROCKFORD       CLOUDY    59  50  72 W9        30.01S
FREEPORT*      CLOUDY    56  50  80 W9        30.01F
ROCHELLE*      CLOUDY    58  51  78 W8        30.01F
$$

ILZ005-006-012>014-019>023-261000-
NORTHEAST ILLINOIS

CITY           SKY/WX    TMP DP  RH WIND       PRES   REMARKS
CHICAGO-OHARE  CLOUDY    61  50  67 NW14G24   29.95F
CHICAGO-MIDWAY CLOUDY    62  53  72 W10       29.96F
AURORA         CLOUDY    61  50  67 W12       30.00R
LANSING*       LGT RAIN  60  58  95 W9        29.98S
WAUKEGAN       CLOUDY    60  51  72 W7        29.93S
DUPAGE AIRPORT CLOUDY    61  50  67 W12       29.97S
KANKAKEE*      DRIZZLE   58  58  97 W7        30.00F
WHEELING       CLOUDY    61  50  67 W12       29.96S
NORTHERLY ISL    N/A     63  53  70 W7          N/A
$$

LMZ740>746-261000-
SOUTHERN LAKE MICHIGAN

STATION/POSITION SKY/WX   TEMP    WIND        PRES    VSBY  WAVE
                          AIR SEA DIR/SP/G                  HT/PER
                          (F)     (DEG/KT/KT) (MB)    (MI)  (FT/S)
SOUTHERN BUOY              65 72  280/ 19/ 23 1011.8          4/ 4
WILMETTE HARBOR            63 65  300/ 14/ 17   N/A           1/ 3
HARRISON CRIB              63     270/ 17/ 19   N/A
BURNHAM HARBOR             62     280/  9/ 11   N/A
CALUMET HARBOR             60     230/  5/  9 1014.4F
BURNS HARBOR               62     290/ 20     1014.9S
MICHIGAN CITY              64     250/ 26/ 28   N/A
MICHIGAN CITY 6N           65 65  290/ 19/ 23   N/A           5/ 5
ST. JOSEPH                 66 66  290/ 19/ 25 1013.5S         6/ 5
$$

ILZ025>027-034>036-040-047-049-050-058-095>099-261000-
WEST-CENTRAL ILLINOIS

CITY           SKY/WX    TMP DP  RH WIND       PRES   REMARKS
QUINCY         MOCLDY    60  52  74 W7        30.11S
GALESBURG*     CLOUDY    58  51  78 W9        30.08S
MACOMB*        CLOUDY    59  51  76 W6        30.11S
$$

ILZ028>032-037-038-041>044-048-051>054-059>061-261000-
CENTRAL ILLINOIS

CITY           SKY/WX    TMP DP  RH WIND       PRES   REMARKS
BLOOMINGTON    LGT RAIN  58  55  90 W6        30.05S
DECATUR        LGT RAIN  59  56  89 W10       30.06F
PEORIA         CLOUDY    61  52  72 W6        30.06S
LINCOLN*       CLOUDY    61  57  88 W3        30.05F
SPRINGFIELD    CLOUDY    60  57  89 W6        30.09S
TAYLORVILLE    NOT AVBL
$$

ILZ033-039-045-046-055>057-062-063-261000-
EAST-CENTRAL ILLINOIS

CITY           SKY/WX    TMP DP  RH WIND       PRES   REMARKS
CHAMPAIGN      LGT RAIN  58  55  90 W6        30.06R
MATTOON        RAIN      60  55  83 NW15G21   30.05R
$$

ILZ079-100>102-261000-
SOUTHWEST ILLINOIS

CITY           SKY/WX    TMP DP  RH WIND       PRES   REMARKS
ALTON          LGT RAIN  58  56  95 W3        30.10F
CAHOKIA*       LGT RAIN  61  55  81 NW12      30.11S
SPARTA*        CLOUDY    61  56  84 NW10G17   30.13R
$$

ILZ064>066-069>071-074>076-080>082-084>086-088>090-092>094-261000-
SOUTH-CENTRAL ILLINOIS

CITY           SKY/WX    TMP DP  RH WIND       PRES   REMARKS
CARBONDALE     CLOUDY    63  61  93 NW9       30.09S
MT. VERNON     CLOUDY    64  54  68 CALM      30.09S
CENTRALIA*     CLOUDY    64  59  84 NW14      30.07F
SALEM*         CLOUDY    64  58  82 NW9       30.09R
METROPOLIS*    CLOUDY    66  59  77 N16G28    30.05R
$$

ILZ067-068-072-073-078-083-087-091-261000-
SOUTHEAST ILLINOIS

CITY           SKY/WX    TMP DP  RH WIND       PRES   REMARKS
LAWRENCEVILLE  HVY RAIN  62  59  90 NW14      30.04F FOG
FLORA*         CLOUDY    64  59  85 NW5       30.08R
HARRISBURG*    CLOUDY    62  59  92 N12G18    30.07R
ROBINSON*      CLOUDY    61  55  80 N9        30.06R
$$

ABBREVIATIONS USED IN REMARKS
   TC - TEMPERATURE IN CELSIUS
  WCI - WIND CHILL INDEX
   HX - HEAT INDEX
  VSB - VISIBILITY
$$





USA.gov is the U.S. government's official web portal to all federal, state and local government web resources and services.